Year,Month,Day,Hour,Minute,Value (Times are PST for temperature in C)
2009,08,26,00,00,13.40
2009,08,26,00,01,13.40
2009,08,26,00,02,13.30
2009,08,26,00,03,13.30
2009,08,26,00,04,13.30
2009,08,26,00,05,13.30
2009,08,26,00,06,13.30
2009,08,26,00,07,13.30
2009,08,26,00,08,13.30
2009,08,26,00,09,13.30
2009,08,26,00,10,13.20
2009,08,26,00,11,13.20
2009,08,26,00,12,13.20
2009,08,26,00,13,13.20
2009,08,26,00,14,13.20
2009,08,26,00,15,13.20
2009,08,26,00,16,13.20
2009,08,26,00,17,13.30
2009,08,26,00,18,13.30
2009,08,26,00,19,13.30
2009,08,26,00,20,13.30
2009,08,26,00,21,13.30
2009,08,26,00,22,13.30
2009,08,26,00,23,13.40
2009,08,26,00,24,13.40
2009,08,26,00,25,13.40
2009,08,26,00,26,13.40
2009,08,26,00,27,13.40
2009,08,26,00,28,13.40
2009,08,26,00,29,13.40
2009,08,26,00,30,13.40
2009,08,26,00,31,13.40
2009,08,26,00,32,13.40
2009,08,26,00,33,13.40
2009,08,26,00,34,13.40
2009,08,26,00,35,13.40
2009,08,26,00,36,13.40
2009,08,26,00,37,13.40
2009,08,26,00,38,13.40
2009,08,26,00,39,13.40
2009,08,26,00,40,13.40
2009,08,26,00,41,13.30
2009,08,26,00,42,13.30
2009,08,26,00,43,13.30
2009,08,26,00,44,13.30
2009,08,26,00,45,13.30
2009,08,26,00,46,13.30
2009,08,26,00,47,13.30
2009,08,26,00,48,13.30
2009,08,26,00,49,13.30
2009,08,26,00,50,13.30
2009,08,26,00,51,13.30
2009,08,26,00,52,13.30
2009,08,26,00,53,13.30
2009,08,26,00,54,13.30
2009,08,26,00,55,13.30
2009,08,26,00,56,13.30
2009,08,26,00,57,13.30
2009,08,26,00,58,13.30
2009,08,26,00,59,13.30
2009,08,26,01,00,13.30
2009,08,26,01,01,13.30
2009,08,26,01,02,13.30
2009,08,26,01,03,13.20
2009,08,26,01,04,13.20
2009,08,26,01,05,13.20
2009,08,26,01,06,13.20
2009,08,26,01,07,13.20
2009,08,26,01,08,13.10
2009,08,26,01,09,13.10
2009,08,26,01,10,13.10
2009,08,26,01,11,13.10
2009,08,26,01,12,13.10
2009,08,26,01,13,13.10
2009,08,26,01,14,13.00
2009,08,26,01,15,13.00
2009,08,26,01,16,13.00
2009,08,26,01,17,13.00
2009,08,26,01,18,12.90
2009,08,26,01,19,12.90
2009,08,26,01,20,12.90
2009,08,26,01,21,12.90
2009,08,26,01,22,12.80
2009,08,26,01,23,12.80
2009,08,26,01,24,12.80
2009,08,26,01,25,12.80
2009,08,26,01,26,12.80
2009,08,26,01,27,12.70
2009,08,26,01,28,12.70
2009,08,26,01,29,12.70
2009,08,26,01,30,12.70
2009,08,26,01,31,12.70
2009,08,26,01,32,12.70
2009,08,26,01,33,12.70
2009,08,26,01,34,12.70
2009,08,26,01,35,12.70
2009,08,26,01,36,12.70
2009,08,26,01,37,12.70
2009,08,26,01,38,12.70
2009,08,26,01,39,12.60
2009,08,26,01,40,12.60
2009,08,26,01,41,12.60
2009,08,26,01,42,12.50
2009,08,26,01,43,12.50
2009,08,26,01,44,12.50
2009,08,26,01,45,12.40
2009,08,26,01,46,12.40
2009,08,26,01,47,12.40
2009,08,26,01,48,12.40
2009,08,26,01,49,12.40
2009,08,26,01,50,12.40
2009,08,26,01,51,12.30
2009,08,26,01,52,12.30
2009,08,26,01,53,12.30
2009,08,26,01,54,12.30
2009,08,26,01,55,12.30
2009,08,26,01,56,12.30
2009,08,26,01,57,12.30
2009,08,26,01,58,12.30
2009,08,26,01,59,12.30
2009,08,26,02,00,12.30
2009,08,26,02,01,12.20
2009,08,26,02,02,12.20
2009,08,26,02,03,12.20
2009,08,26,02,04,12.20
2009,08,26,02,05,12.20
2009,08,26,02,06,12.20
2009,08,26,02,07,12.20
2009,08,26,02,08,12.20
2009,08,26,02,09,12.10
2009,08,26,02,10,12.10
2009,08,26,02,11,12.10
2009,08,26,02,12,12.10
2009,08,26,02,13,12.10
2009,08,26,02,14,12.10
2009,08,26,02,15,12.00
2009,08,26,02,16,12.00
2009,08,26,02,17,12.00
2009,08,26,02,18,12.00
2009,08,26,02,19,12.00
2009,08,26,02,20,12.00
2009,08,26,02,21,12.00
2009,08,26,02,22,12.00
2009,08,26,02,23,12.00
2009,08,26,02,24,12.00
2009,08,26,02,25,11.90
2009,08,26,02,26,11.90
2009,08,26,02,27,11.90
2009,08,26,02,28,11.90
2009,08,26,02,29,11.90
2009,08,26,02,30,11.90
2009,08,26,02,31,11.90
2009,08,26,02,32,11.80
2009,08,26,02,33,11.80
2009,08,26,02,34,11.80
2009,08,26,02,35,11.80
2009,08,26,02,36,11.80
2009,08,26,02,37,11.80
2009,08,26,02,38,11.80
2009,08,26,02,39,11.80
2009,08,26,02,40,11.80
2009,08,26,02,41,11.80
2009,08,26,02,42,11.90
2009,08,26,02,43,11.90
2009,08,26,02,44,11.80
2009,08,26,02,45,11.80
2009,08,26,02,46,11.80
2009,08,26,02,47,11.90
2009,08,26,02,48,11.90
2009,08,26,02,49,11.90
2009,08,26,02,50,11.90
2009,08,26,02,51,11.90
2009,08,26,02,52,11.90
2009,08,26,02,53,11.90
2009,08,26,02,54,11.90
2009,08,26,02,55,11.90
2009,08,26,02,56,11.90
2009,08,26,02,57,11.90
2009,08,26,02,58,11.90
2009,08,26,02,59,11.90
2009,08,26,03,00,11.90
2009,08,26,03,01,11.90
2009,08,26,03,02,12.00
2009,08,26,03,03,12.00
2009,08,26,03,04,12.00
2009,08,26,03,05,12.00
2009,08,26,03,06,12.00
2009,08,26,03,07,12.00
2009,08,26,03,08,12.00
2009,08,26,03,09,12.00
2009,08,26,03,10,12.00
2009,08,26,03,11,12.00
2009,08,26,03,12,12.00
2009,08,26,03,13,12.00
2009,08,26,03,14,12.00
2009,08,26,03,15,12.00
2009,08,26,03,16,12.00
2009,08,26,03,17,12.00
2009,08,26,03,18,12.00
2009,08,26,03,19,12.00
2009,08,26,03,20,12.10
2009,08,26,03,21,12.10
2009,08,26,03,22,12.10
2009,08,26,03,23,12.10
2009,08,26,03,24,12.10
2009,08,26,03,25,12.10
2009,08,26,03,26,12.10
2009,08,26,03,27,12.10
2009,08,26,03,28,12.10
2009,08,26,03,29,12.10
2009,08,26,03,30,12.10
2009,08,26,03,31,12.10
2009,08,26,03,32,12.10
2009,08,26,03,33,12.10
2009,08,26,03,34,12.10
2009,08,26,03,35,12.10
2009,08,26,03,36,12.10
2009,08,26,03,37,12.00
2009,08,26,03,38,12.00
2009,08,26,03,39,12.00
2009,08,26,03,40,12.00
2009,08,26,03,41,12.00
2009,08,26,03,42,11.90
2009,08,26,03,43,11.90
2009,08,26,03,44,11.90
2009,08,26,03,45,11.90
2009,08,26,03,46,11.80
2009,08,26,03,47,11.80
2009,08,26,03,48,11.80
2009,08,26,03,49,11.80
2009,08,26,03,50,11.80
2009,08,26,03,51,11.80
2009,08,26,03,52,11.70
2009,08,26,03,53,11.70
2009,08,26,03,54,11.70
2009,08,26,03,55,11.70
2009,08,26,03,56,11.70
2009,08,26,03,57,11.60
2009,08,26,03,58,11.60
2009,08,26,03,59,11.60
2009,08,26,04,00,11.60
2009,08,26,04,01,11.60
2009,08,26,04,02,11.60
2009,08,26,04,03,11.50
2009,08,26,04,04,11.50
2009,08,26,04,05,11.50
2009,08,26,04,06,11.40
2009,08,26,04,07,11.40
2009,08,26,04,08,11.40
2009,08,26,04,09,11.40
2009,08,26,04,10,11.40
2009,08,26,04,11,11.30
2009,08,26,04,12,11.30
2009,08,26,04,13,11.30
2009,08,26,04,14,11.30
2009,08,26,04,15,11.30
2009,08,26,04,16,11.20
2009,08,26,04,17,11.20
2009,08,26,04,18,11.20
2009,08,26,04,19,11.20
2009,08,26,04,20,11.20
2009,08,26,04,21,11.20
2009,08,26,04,22,11.10
2009,08,26,04,23,11.10
2009,08,26,04,24,11.10
2009,08,26,04,25,11.10
2009,08,26,04,26,11.00
2009,08,26,04,27,11.00
2009,08,26,04,28,11.00
2009,08,26,04,29,11.00
2009,08,26,04,30,11.00
2009,08,26,04,31,10.90
2009,08,26,04,32,10.90
2009,08,26,04,33,10.90
2009,08,26,04,34,10.90
2009,08,26,04,35,10.90
2009,08,26,04,36,10.90
2009,08,26,04,37,10.90
2009,08,26,04,38,10.90
2009,08,26,04,39,10.90
2009,08,26,04,40,10.90
2009,08,26,04,41,10.90
2009,08,26,04,42,10.80
2009,08,26,04,43,10.80
2009,08,26,04,44,10.80
2009,08,26,04,45,10.80
2009,08,26,04,46,10.80
2009,08,26,04,47,10.80
2009,08,26,04,48,10.80
2009,08,26,04,49,10.70
2009,08,26,04,50,10.70
2009,08,26,04,51,10.70
2009,08,26,04,52,10.70
2009,08,26,04,53,10.70
2009,08,26,04,54,10.60
2009,08,26,04,55,10.60
2009,08,26,04,56,10.60
2009,08,26,04,57,10.60
2009,08,26,04,58,10.60
2009,08,26,04,59,10.60
2009,08,26,05,00,10.60
2009,08,26,05,01,10.60
2009,08,26,05,02,10.60
2009,08,26,05,03,10.60
2009,08,26,05,04,10.60
2009,08,26,05,05,10.60
2009,08,26,05,06,10.60
2009,08,26,05,07,10.60
2009,08,26,05,08,10.60
2009,08,26,05,09,10.60
2009,08,26,05,10,10.60
2009,08,26,05,11,10.60
2009,08,26,05,12,10.60
2009,08,26,05,13,10.60
2009,08,26,05,14,10.60
2009,08,26,05,15,10.60
2009,08,26,05,16,10.60
2009,08,26,05,17,10.60
2009,08,26,05,18,10.60
2009,08,26,05,19,10.50
2009,08,26,05,20,10.50
2009,08,26,05,21,10.50
2009,08,26,05,22,10.50
2009,08,26,05,23,10.50
2009,08,26,05,24,10.40
2009,08,26,05,25,10.40
2009,08,26,05,26,10.40
2009,08,26,05,27,10.40
2009,08,26,05,28,10.40
2009,08,26,05,29,10.40
2009,08,26,05,30,10.40
2009,08,26,05,31,10.40
2009,08,26,05,32,10.40
2009,08,26,05,33,10.40
2009,08,26,05,34,10.30
2009,08,26,05,35,10.30
2009,08,26,05,36,10.30
2009,08,26,05,37,10.30
2009,08,26,05,38,10.30
2009,08,26,05,39,10.30
2009,08,26,05,40,10.30
2009,08,26,05,41,10.30
2009,08,26,05,42,10.30
2009,08,26,05,43,10.30
2009,08,26,05,44,10.30
2009,08,26,05,45,10.30
2009,08,26,05,46,10.30
2009,08,26,05,47,10.30
2009,08,26,05,48,10.30
2009,08,26,05,49,10.30
2009,08,26,05,50,10.30
2009,08,26,05,51,10.30
2009,08,26,05,52,10.30
2009,08,26,05,53,10.30
2009,08,26,05,54,10.30
2009,08,26,05,55,10.30
2009,08,26,05,56,10.30
2009,08,26,05,57,10.30
2009,08,26,05,58,10.30
2009,08,26,05,59,10.30
2009,08,26,06,00,10.20
2009,08,26,06,01,10.20
2009,08,26,06,02,10.20
2009,08,26,06,03,10.20
2009,08,26,06,04,10.20
2009,08,26,06,05,10.20
2009,08,26,06,06,10.10
2009,08,26,06,07,10.10
2009,08,26,06,08,10.10
2009,08,26,06,09,10.10
2009,08,26,06,10,10.10
2009,08,26,06,11,10.10
2009,08,26,06,12,10.00
2009,08,26,06,13,10.00
2009,08,26,06,14,10.00
2009,08,26,06,15,10.00
2009,08,26,06,16,10.00
2009,08,26,06,17,9.90
2009,08,26,06,18,9.90
2009,08,26,06,19,9.90
2009,08,26,06,20,9.90
2009,08,26,06,21,9.90
2009,08,26,06,22,9.90
2009,08,26,06,23,9.90
2009,08,26,06,24,9.90
2009,08,26,06,25,9.90
2009,08,26,06,26,9.90
2009,08,26,06,27,9.90
2009,08,26,06,28,9.90
2009,08,26,06,29,9.90
2009,08,26,06,30,9.90
2009,08,26,06,31,9.80
2009,08,26,06,32,9.80
2009,08,26,06,33,9.80
2009,08,26,06,34,9.80
2009,08,26,06,35,9.80
2009,08,26,06,36,9.80
2009,08,26,06,37,9.80
2009,08,26,06,38,9.80
2009,08,26,06,39,9.80
2009,08,26,06,40,9.80
2009,08,26,06,41,9.80
2009,08,26,06,42,9.80
2009,08,26,06,43,9.80
2009,08,26,06,44,9.80
2009,08,26,06,45,9.90
2009,08,26,06,46,9.90
2009,08,26,06,47,9.90
2009,08,26,06,48,9.90
2009,08,26,06,49,9.90
2009,08,26,06,50,9.90
2009,08,26,06,51,9.90
2009,08,26,06,52,9.90
2009,08,26,06,53,9.90
2009,08,26,06,54,9.90
2009,08,26,06,55,9.90
2009,08,26,06,56,9.90
2009,08,26,06,57,9.90
2009,08,26,06,58,9.90
2009,08,26,06,59,9.90
2009,08,26,07,00,9.90
2009,08,26,07,01,10.00
2009,08,26,07,02,10.00
2009,08,26,07,03,10.00
2009,08,26,07,04,10.00
2009,08,26,07,05,10.00
2009,08,26,07,06,10.00
2009,08,26,07,07,10.00
2009,08,26,07,08,10.00
2009,08,26,07,09,10.00
2009,08,26,07,10,10.00
2009,08,26,07,11,10.00
2009,08,26,07,12,10.00
2009,08,26,07,13,10.00
2009,08,26,07,14,10.00
2009,08,26,07,15,10.00
2009,08,26,07,16,10.10
2009,08,26,07,17,10.10
2009,08,26,07,18,10.10
2009,08,26,07,19,10.10
2009,08,26,07,20,10.10
2009,08,26,07,21,10.10
2009,08,26,07,22,10.20
2009,08,26,07,23,10.20
2009,08,26,07,24,10.20
2009,08,26,07,25,10.20
2009,08,26,07,26,10.30
2009,08,26,07,27,10.30
2009,08,26,07,28,10.40
2009,08,26,07,29,10.50
2009,08,26,07,30,10.60
2009,08,26,07,31,10.70
2009,08,26,07,32,10.80
2009,08,26,07,33,10.80
2009,08,26,07,34,10.90
2009,08,26,07,35,11.00
2009,08,26,07,36,11.10
2009,08,26,07,37,11.10
2009,08,26,07,38,11.20
2009,08,26,07,39,11.20
2009,08,26,07,40,11.30
2009,08,26,07,41,11.30
2009,08,26,07,42,11.30
2009,08,26,07,43,11.40
2009,08,26,07,44,11.40
2009,08,26,07,45,11.40
2009,08,26,07,46,11.50
2009,08,26,07,47,11.50
2009,08,26,07,48,11.60
2009,08,26,07,49,11.60
2009,08,26,07,50,11.60
2009,08,26,07,51,11.70
2009,08,26,07,52,11.70
2009,08,26,07,53,11.70
2009,08,26,07,54,11.80
2009,08,26,07,55,11.80
2009,08,26,07,56,11.80
2009,08,26,07,57,11.80
2009,08,26,07,58,11.90
2009,08,26,07,59,11.90
2009,08,26,08,00,11.90
2009,08,26,08,01,12.00
2009,08,26,08,02,12.00
2009,08,26,08,03,12.10
2009,08,26,08,04,12.10
2009,08,26,08,05,12.20
2009,08,26,08,06,12.20
2009,08,26,08,07,12.20
2009,08,26,08,08,12.30
2009,08,26,08,09,12.40
2009,08,26,08,10,12.40
2009,08,26,08,11,12.50
2009,08,26,08,12,12.60
2009,08,26,08,13,12.60
2009,08,26,08,14,12.70
2009,08,26,08,15,12.80
2009,08,26,08,16,12.80
2009,08,26,08,17,12.90
2009,08,26,08,18,12.90
2009,08,26,08,19,13.00
2009,08,26,08,20,13.10
2009,08,26,08,21,13.20
2009,08,26,08,22,13.20
2009,08,26,08,23,13.30
2009,08,26,08,24,13.40
2009,08,26,08,25,13.50
2009,08,26,08,26,13.50
2009,08,26,08,27,13.60
2009,08,26,08,28,13.70
2009,08,26,08,29,13.80
2009,08,26,08,30,13.80
2009,08,26,08,31,13.90
2009,08,26,08,32,14.00
2009,08,26,08,33,14.10
2009,08,26,08,34,14.10
2009,08,26,08,35,14.20
2009,08,26,08,36,14.30
2009,08,26,08,37,14.40
2009,08,26,08,38,14.50
2009,08,26,08,39,14.60
2009,08,26,08,40,14.70
2009,08,26,08,41,14.70
2009,08,26,08,42,14.80
2009,08,26,08,43,14.90
2009,08,26,08,44,14.90
2009,08,26,08,45,15.00
2009,08,26,08,46,15.00
2009,08,26,08,47,15.00
2009,08,26,08,48,15.00
2009,08,26,08,49,15.10
2009,08,26,08,50,15.10
2009,08,26,08,51,15.20
2009,08,26,08,52,15.30
2009,08,26,08,53,15.30
2009,08,26,08,54,15.30
2009,08,26,08,55,15.40
2009,08,26,08,56,15.40
2009,08,26,08,57,15.40
2009,08,26,08,58,15.50
2009,08,26,08,59,15.50
2009,08,26,09,00,15.60
2009,08,26,09,01,15.60
2009,08,26,09,02,15.70
2009,08,26,09,03,15.70
2009,08,26,09,04,15.80
2009,08,26,09,05,15.80
2009,08,26,09,06,15.90
2009,08,26,09,07,15.90
2009,08,26,09,08,15.90
2009,08,26,09,09,16.00
2009,08,26,09,10,16.00
2009,08,26,09,11,16.00
2009,08,26,09,12,16.10
2009,08,26,09,13,16.10
2009,08,26,09,14,16.20
2009,08,26,09,15,16.20
2009,08,26,09,16,16.20
2009,08,26,09,17,16.30
2009,08,26,09,18,16.30
2009,08,26,09,19,16.30
2009,08,26,09,20,16.30
2009,08,26,09,21,16.40
2009,08,26,09,22,16.40
2009,08,26,09,23,16.50
2009,08,26,09,24,16.60
2009,08,26,09,25,16.60
2009,08,26,09,26,16.60
2009,08,26,09,27,16.60
2009,08,26,09,28,16.70
2009,08,26,09,29,16.70
2009,08,26,09,30,16.70
2009,08,26,09,31,16.70
2009,08,26,09,32,16.70
2009,08,26,09,33,16.70
2009,08,26,09,34,16.70
2009,08,26,09,35,16.70
2009,08,26,09,36,16.70
2009,08,26,09,37,16.80
2009,08,26,09,38,16.80
2009,08,26,09,39,16.90
2009,08,26,09,40,16.90
2009,08,26,09,41,16.90
2009,08,26,09,42,17.00
2009,08,26,09,43,17.00
2009,08,26,09,44,17.10
2009,08,26,09,45,17.20
2009,08,26,09,46,17.30
2009,08,26,09,47,17.30
2009,08,26,09,48,17.40
2009,08,26,09,49,17.50
2009,08,26,09,50,17.50
2009,08,26,09,51,17.60
2009,08,26,09,52,17.60
2009,08,26,09,53,17.60
2009,08,26,09,54,17.70
2009,08,26,09,55,17.70
2009,08,26,09,56,17.70
2009,08,26,09,57,17.70
2009,08,26,09,58,17.80
2009,08,26,09,59,17.80
2009,08,26,10,00,17.80
2009,08,26,10,01,17.90
2009,08,26,10,02,17.90
2009,08,26,10,03,18.00
2009,08,26,10,04,18.10
2009,08,26,10,05,18.10
2009,08,26,10,06,18.10
2009,08,26,10,07,18.10
2009,08,26,10,08,18.10
2009,08,26,10,09,18.00
2009,08,26,10,10,18.00
2009,08,26,10,11,17.90
2009,08,26,10,12,17.90
2009,08,26,10,13,17.90
2009,08,26,10,14,17.90
2009,08,26,10,15,17.90
2009,08,26,10,16,17.90
2009,08,26,10,17,17.90
2009,08,26,10,18,17.90
2009,08,26,10,19,17.90
2009,08,26,10,20,17.80
2009,08,26,10,21,17.80
2009,08,26,10,22,17.90
2009,08,26,10,23,17.90
2009,08,26,10,24,17.90
2009,08,26,10,25,18.00
2009,08,26,10,26,18.00
2009,08,26,10,27,18.10
2009,08,26,10,28,18.10
2009,08,26,10,29,18.10
2009,08,26,10,30,18.10
2009,08,26,10,31,18.00
2009,08,26,10,32,18.00
2009,08,26,10,33,17.90
2009,08,26,10,34,17.90
2009,08,26,10,35,17.90
2009,08,26,10,36,18.00
2009,08,26,10,37,18.10
2009,08,26,10,38,18.20
2009,08,26,10,39,18.30
2009,08,26,10,40,18.30
2009,08,26,10,41,18.40
2009,08,26,10,42,18.40
2009,08,26,10,43,18.40
2009,08,26,10,44,18.30
2009,08,26,10,45,18.30
2009,08,26,10,46,18.30
2009,08,26,10,47,18.20
2009,08,26,10,48,18.20
2009,08,26,10,49,18.20
2009,08,26,10,50,18.20
2009,08,26,10,51,18.20
2009,08,26,10,52,18.20
2009,08,26,10,53,18.20
2009,08,26,10,54,18.20
2009,08,26,10,55,18.20
2009,08,26,10,56,18.20
2009,08,26,10,57,18.30
2009,08,26,10,58,18.30
2009,08,26,10,59,18.30
2009,08,26,11,00,18.30
2009,08,26,11,01,18.30
2009,08,26,11,02,18.30
2009,08,26,11,03,18.30
2009,08,26,11,04,18.30
2009,08,26,11,05,18.30
2009,08,26,11,06,18.30
2009,08,26,11,07,18.30
2009,08,26,11,08,18.40
2009,08,26,11,09,18.40
2009,08,26,11,10,18.40
2009,08,26,11,11,18.40
2009,08,26,11,12,18.40
2009,08,26,11,13,18.50
2009,08,26,11,14,18.60
2009,08,26,11,15,18.70
2009,08,26,11,16,18.80
2009,08,26,11,17,18.80
2009,08,26,11,18,18.90
2009,08,26,11,19,19.00
2009,08,26,11,20,19.10
2009,08,26,11,21,19.10
2009,08,26,11,22,19.30
2009,08,26,11,23,19.30
2009,08,26,11,24,19.40
2009,08,26,11,25,19.50
2009,08,26,11,26,19.50
2009,08,26,11,27,19.60
2009,08,26,11,28,19.60
2009,08,26,11,29,19.60
2009,08,26,11,30,19.60
2009,08,26,11,31,19.60
2009,08,26,11,32,19.60
2009,08,26,11,33,19.50
2009,08,26,11,34,19.50
2009,08,26,11,35,19.50
2009,08,26,11,36,19.40
2009,08,26,11,37,19.40
2009,08,26,11,38,19.40
2009,08,26,11,39,19.30
2009,08,26,11,40,19.30
2009,08,26,11,41,19.30
2009,08,26,11,42,19.20
2009,08,26,11,43,19.10
2009,08,26,11,44,19.00
2009,08,26,11,45,19.00
2009,08,26,11,46,18.90
2009,08,26,11,47,18.90
2009,08,26,11,48,18.90
2009,08,26,11,49,18.90
2009,08,26,11,50,18.90
2009,08,26,11,51,19.00
2009,08,26,11,52,19.00
2009,08,26,11,53,19.00
2009,08,26,11,54,19.10
2009,08,26,11,55,19.10
2009,08,26,11,56,19.10
2009,08,26,11,57,19.10
2009,08,26,11,58,19.10
2009,08,26,11,59,19.10
2009,08,26,12,00,19.10
2009,08,26,12,01,19.10
2009,08,26,12,02,19.10
2009,08,26,12,03,19.10
2009,08,26,12,04,19.10
2009,08,26,12,05,19.10
2009,08,26,12,06,19.10
2009,08,26,12,07,19.10
2009,08,26,12,08,19.10
2009,08,26,12,09,19.10
2009,08,26,12,10,19.10
2009,08,26,12,11,19.10
2009,08,26,12,12,19.10
2009,08,26,12,13,19.20
2009,08,26,12,14,19.20
2009,08,26,12,15,19.20
2009,08,26,12,16,19.20
2009,08,26,12,17,19.30
2009,08,26,12,18,19.30
2009,08,26,12,19,19.40
2009,08,26,12,20,19.40
2009,08,26,12,21,19.50
2009,08,26,12,22,19.60
2009,08,26,12,23,19.70
2009,08,26,12,24,19.70
2009,08,26,12,25,19.60
2009,08,26,12,26,19.60
2009,08,26,12,27,19.60
2009,08,26,12,28,19.60
2009,08,26,12,29,19.50
2009,08,26,12,30,19.50
2009,08,26,12,31,19.50
2009,08,26,12,32,19.60
2009,08,26,12,33,19.70
2009,08,26,12,34,19.80
2009,08,26,12,35,19.90
2009,08,26,12,36,20.00
2009,08,26,12,37,19.90
2009,08,26,12,38,20.00
2009,08,26,12,39,20.00
2009,08,26,12,40,20.10
2009,08,26,12,41,20.10
2009,08,26,12,42,20.20
2009,08,26,12,43,20.30
2009,08,26,12,44,20.30
2009,08,26,12,45,20.40
2009,08,26,12,46,20.50
2009,08,26,12,47,20.50
2009,08,26,12,48,20.50
2009,08,26,12,49,20.60
2009,08,26,12,50,20.70
2009,08,26,12,51,20.70
2009,08,26,12,52,20.70
2009,08,26,12,53,20.70
2009,08,26,12,54,20.70
2009,08,26,12,55,20.70
2009,08,26,12,56,20.70
2009,08,26,12,57,20.70
2009,08,26,12,58,20.70
2009,08,26,12,59,20.70
2009,08,26,13,00,20.60
2009,08,26,13,01,20.60
2009,08,26,13,02,20.50
2009,08,26,13,03,20.40
2009,08,26,13,04,20.30
2009,08,26,13,05,20.10
2009,08,26,13,06,20.10
2009,08,26,13,07,20.10
2009,08,26,13,08,20.10
2009,08,26,13,09,20.10
2009,08,26,13,10,20.20
2009,08,26,13,11,20.20
2009,08,26,13,12,20.30
2009,08,26,13,13,20.30
2009,08,26,13,14,20.40
2009,08,26,13,15,20.40
2009,08,26,13,16,20.40
2009,08,26,13,17,20.50
2009,08,26,13,18,20.50
2009,08,26,13,19,20.60
2009,08,26,13,20,20.70
2009,08,26,13,21,20.80
2009,08,26,13,22,20.80
2009,08,26,13,23,20.80
2009,08,26,13,24,20.80
2009,08,26,13,25,20.80
2009,08,26,13,26,20.80
2009,08,26,13,27,20.80
2009,08,26,13,28,20.80
2009,08,26,13,29,20.80
2009,08,26,13,30,20.90
2009,08,26,13,31,20.90
2009,08,26,13,32,20.90
2009,08,26,13,33,21.00
2009,08,26,13,34,21.10
2009,08,26,13,35,21.20
2009,08,26,13,36,21.30
2009,08,26,13,37,21.30
2009,08,26,13,38,21.40
2009,08,26,13,39,21.50
2009,08,26,13,40,21.60
2009,08,26,13,41,21.60
2009,08,26,13,42,21.60
2009,08,26,13,43,21.50
2009,08,26,13,44,21.40
2009,08,26,13,45,21.30
2009,08,26,13,46,21.20
2009,08,26,13,47,21.10
2009,08,26,13,48,21.10
2009,08,26,13,49,21.10
2009,08,26,13,50,21.10
2009,08,26,13,51,21.20
2009,08,26,13,52,21.20
2009,08,26,13,53,21.30
2009,08,26,13,54,21.30
2009,08,26,13,55,21.50
2009,08,26,13,56,21.60
2009,08,26,13,57,21.70
2009,08,26,13,58,21.80
2009,08,26,13,59,21.80
2009,08,26,14,00,21.80
2009,08,26,14,01,21.70
2009,08,26,14,02,21.60
2009,08,26,14,03,21.40
2009,08,26,14,04,21.30
2009,08,26,14,05,21.20
2009,08,26,14,06,21.10
2009,08,26,14,07,21.00
2009,08,26,14,08,21.10
2009,08,26,14,09,21.10
2009,08,26,14,10,21.20
2009,08,26,14,11,21.20
2009,08,26,14,12,21.20
2009,08,26,14,13,21.30
2009,08,26,14,14,21.30
2009,08,26,14,15,21.40
2009,08,26,14,16,21.40
2009,08,26,14,17,21.40
2009,08,26,14,18,21.40
2009,08,26,14,19,21.40
2009,08,26,14,20,21.40
2009,08,26,14,21,21.30
2009,08,26,14,22,21.30
2009,08,26,14,23,21.30
2009,08,26,14,24,21.30
2009,08,26,14,25,21.40
2009,08,26,14,26,21.40
2009,08,26,14,27,21.40
2009,08,26,14,28,21.40
2009,08,26,14,29,21.50
2009,08,26,14,30,21.50
2009,08,26,14,31,21.60
2009,08,26,14,32,21.60
2009,08,26,14,33,21.60
2009,08,26,14,34,21.70
2009,08,26,14,35,21.60
2009,08,26,14,36,21.50
2009,08,26,14,37,21.40
2009,08,26,14,38,21.40
2009,08,26,14,39,21.40
2009,08,26,14,40,21.30
2009,08,26,14,41,21.30
2009,08,26,14,42,21.40
2009,08,26,14,43,21.40
2009,08,26,14,44,21.50
2009,08,26,14,45,21.50
2009,08,26,14,46,21.60
2009,08,26,14,47,21.60
2009,08,26,14,48,21.60
2009,08,26,14,49,21.60
2009,08,26,14,50,21.60
2009,08,26,14,51,21.60
2009,08,26,14,52,21.50
2009,08,26,14,53,21.40
2009,08,26,14,54,21.40
2009,08,26,14,55,21.40
2009,08,26,14,56,21.40
2009,08,26,14,57,21.40
2009,08,26,14,58,21.30
2009,08,26,14,59,21.20
2009,08,26,15,00,21.10
2009,08,26,15,01,21.10
2009,08,26,15,02,21.00
2009,08,26,15,03,21.00
2009,08,26,15,04,21.00
2009,08,26,15,05,21.00
2009,08,26,15,06,21.00
2009,08,26,15,07,21.00
2009,08,26,15,08,21.00
2009,08,26,15,09,21.00
2009,08,26,15,10,21.00
2009,08,26,15,11,21.00
2009,08,26,15,12,21.00
2009,08,26,15,13,21.10
2009,08,26,15,14,21.10
2009,08,26,15,15,21.10
2009,08,26,15,16,21.10
2009,08,26,15,17,21.10
2009,08,26,15,18,21.10
2009,08,26,15,19,21.10
2009,08,26,15,20,21.10
2009,08,26,15,21,21.10
2009,08,26,15,22,21.10
2009,08,26,15,23,21.10
2009,08,26,15,24,21.10
2009,08,26,15,25,21.10
2009,08,26,15,26,21.10
2009,08,26,15,27,21.10
2009,08,26,15,28,21.10
2009,08,26,15,29,21.20
2009,08,26,15,30,21.20
2009,08,26,15,31,21.20
2009,08,26,15,32,21.20
2009,08,26,15,33,21.20
2009,08,26,15,34,21.20
2009,08,26,15,35,21.20
2009,08,26,15,36,21.20
2009,08,26,15,37,21.20
2009,08,26,15,38,21.20
2009,08,26,15,39,21.20
2009,08,26,15,40,21.10
2009,08,26,15,41,21.10
2009,08,26,15,42,21.10
2009,08,26,15,43,21.10
2009,08,26,15,44,21.10
2009,08,26,15,45,21.10
2009,08,26,15,46,21.10
2009,08,26,15,47,21.10
2009,08,26,15,48,21.10
2009,08,26,15,49,21.10
2009,08,26,15,50,21.10
2009,08,26,15,51,21.10
2009,08,26,15,52,21.10
2009,08,26,15,53,21.10
2009,08,26,15,54,21.10
2009,08,26,15,55,21.10
2009,08,26,15,56,21.10
2009,08,26,15,57,21.10
2009,08,26,15,58,21.10
2009,08,26,15,59,21.00
2009,08,26,16,00,21.00
2009,08,26,16,01,21.00
2009,08,26,16,02,20.90
2009,08,26,16,03,20.90
2009,08,26,16,04,20.90
2009,08,26,16,05,20.90
2009,08,26,16,06,20.90
2009,08,26,16,07,20.90
2009,08,26,16,08,20.90
2009,08,26,16,09,20.90
2009,08,26,16,10,20.90
2009,08,26,16,11,20.90
2009,08,26,16,12,20.90
2009,08,26,16,13,20.90
2009,08,26,16,14,20.90
2009,08,26,16,15,20.80
2009,08,26,16,16,20.80
2009,08,26,16,17,20.80
2009,08,26,16,18,20.80
2009,08,26,16,19,20.80
2009,08,26,16,20,20.80
2009,08,26,16,21,20.70
2009,08,26,16,22,20.70
2009,08,26,16,23,20.70
2009,08,26,16,24,20.70
2009,08,26,16,25,20.70
2009,08,26,16,26,20.70
2009,08,26,16,27,20.70
2009,08,26,16,28,20.70
2009,08,26,16,29,20.70
2009,08,26,16,30,20.70
2009,08,26,16,31,20.60
2009,08,26,16,32,20.60
2009,08,26,16,33,20.60
2009,08,26,16,34,20.70
2009,08,26,16,35,20.70
2009,08,26,16,36,20.70
2009,08,26,16,37,20.80
2009,08,26,16,38,20.80
2009,08,26,16,39,20.80
2009,08,26,16,40,20.80
2009,08,26,16,41,20.80
2009,08,26,16,42,20.80
2009,08,26,16,43,20.80
2009,08,26,16,44,20.80
2009,08,26,16,45,20.70
2009,08,26,16,46,20.80
2009,08,26,16,47,20.70
2009,08,26,16,48,20.70
2009,08,26,16,49,20.70
2009,08,26,16,50,20.70
2009,08,26,16,51,20.70
2009,08,26,16,52,20.70
2009,08,26,16,53,20.70
2009,08,26,16,54,20.70
2009,08,26,16,55,20.70
2009,08,26,16,56,20.70
2009,08,26,16,57,20.70
2009,08,26,16,58,20.70
2009,08,26,16,59,20.70
2009,08,26,17,00,20.70
2009,08,26,17,01,20.70
2009,08,26,17,02,20.70
2009,08,26,17,03,20.70
2009,08,26,17,04,20.70
2009,08,26,17,05,20.70
2009,08,26,17,06,20.70
2009,08,26,17,07,20.70
2009,08,26,17,08,20.70
2009,08,26,17,09,20.70
2009,08,26,17,10,20.60
2009,08,26,17,11,20.60
2009,08,26,17,12,20.60
2009,08,26,17,13,20.60
2009,08,26,17,14,20.60
2009,08,26,17,15,20.60
2009,08,26,17,16,20.60
2009,08,26,17,17,20.50
2009,08,26,17,18,20.50
2009,08,26,17,19,20.50
2009,08,26,17,20,20.50
2009,08,26,17,21,20.40